"Pseudo-MPEC" for P22ppYE

Created 2026 Aug 14 12:35:28 UT using Find_Orb

Click here for an explanation of pseudo-MPECs

 
 Astrometry: 
     P22ppYE*0C2026 08 14.43436123 45 17.583+17 59 05.55   ~8ECZ 20.14wXNEOCPF52
     P22ppYE 0C2026 08 14.44575623 45 11.614+18 00 16.40   ~8ECZ 20.08wXNEOCPF52
     P22ppYE 0C2026 08 14.45727423 45 05.565+18 01 27.19   ~8ECZ 20.00wXNEOCPF52

Station data:
(F52) Pan-STARRS 2, Haleakala  (N20.707382 W156.255910)  US/Hawaii.
   Observers J. Herman, T. Lowe, P. Minguez, A. Schultz, I. Smith. Measurers
   K. Chambers, T. de Boer, J. Fairlamb, H. Gao, M. Huber, C.-C. Lin, E.
   Magnier, Y. Ramanjooloo, R. Wainscoat, R. Weryk. 1.8-m Ritchey-Chrétien +
   CCD.

Orbital elements:  P22ppYE
   Perihelion 2026 Sep 28.850256 +/- 69.6 TT = 20:24:22.0 (JD 2461312.350256)
Epoch 2026 Aug 14.0 TT = JDT 2461266.5   Earth MOID: 0.0874   Ma: 0.0758
M 316.375832230 +/- 60              (J2000 ecliptic)             AutoNEOCP
n   0.951448736 +/- 0.655           Peri.  173.576051 +/- 90
a   1.023793701 +/- 0.47            Node   328.428586 +/- 70
e   0.98057801 +/- 0.277            Incl.   93.898370 +/- 42
P   1.036/378.363d         H 21.37  G  0.15   U 12.5  SR
q 0.019884101 +/- 0.455    Q 2.027703300 +/- 14.9
From 3 observations 2026 Aug. 14 (33.0 min); mean residual 0".15
Residuals in arcseconds: 
260814 F52  .02+  .15-    260814 F52  .03-  .30+    260814 F52  .02+  .15-    

Ephemerides (geocentric):
Date (UTC) HH   RA             Dec           delta  r     elong  mag " sig PA
---- --------  ------------   ------------  ------ ------ -----  --- --------
2026 08 14 13  23 44 20.863   +18 10 13.60  .21647 1.1748 134.5 19.9 17.9  55
2026 08 14 14  23 43 59.045   +18 14 34.91  .21558 1.1742 134.5 19.9 64.7  73
2026 08 14 15  23 43 37.022   +18 18 58.15  .21469 1.1736 134.6 19.9  117  74
2026 08 14 16  23 43 14.790   +18 23 23.34  .21380 1.1730 134.6 19.9  171  74
2026 08 14 17  23 42 52.347   +18 27 50.50  .21291 1.1724 134.7 19.9  227  73
2026 08 14 18  23 42 29.689   +18 32 19.64  .21202 1.1718 134.7 19.9  285  72
2026 08 14 19  23 42 06.814   +18 36 50.79  .21113 1.1712 134.8 19.9  345  71
2026 08 14 20  23 41 43.720   +18 41 23.97  .21024 1.1706 134.8 19.8  409  69
2026 08 14 21  23 41 20.403   +18 45 59.20  .20936 1.1700 134.9 19.8  478  67
2026 08 14 22  23 40 56.860   +18 50 36.49  .20847 1.1694 134.9 19.8  552  65
2026 08 14 23  23 40 33.088   +18 55 15.87  .20759 1.1688 134.9 19.8  634  63
2026 08 15 00  23 40 09.085   +18 59 57.36  .20671 1.1682 135.0 19.8  726  61
2026 08 15 01  23 39 44.846   +19 04 40.98  .20582 1.1676 135.0 19.8  829  58
2026 08 15 02  23 39 20.370   +19 09 26.74  .20494 1.1670 135.1 19.8  946  56
2026 08 15 03  23 38 55.653   +19 14 14.68  .20406 1.1664 135.1 19.8 1080  54
2026 08 15 04  23 38 30.691   +19 19 04.81  .20318 1.1658 135.2 19.8 1236  52
2026 08 15 05  23 38 05.481   +19 23 57.16  .20230 1.1652 135.2 19.7 1416  50
2026 08 15 06  23 37 40.020   +19 28 51.74  .20143 1.1646 135.3 19.7 1629  48
2026 08 15 07  23 37 14.304   +19 33 48.58  .20055 1.1640 135.3 19.7 1880  46
2026 08 15 08  23 36 48.330   +19 38 47.70  .19968 1.1634 135.4 19.7 2180  45
2026 08 15 09  23 36 22.095   +19 43 49.12  .19880 1.1628 135.4 19.7 2544  43
2026 08 15 10  23 35 55.594   +19 48 52.87  .19793 1.1622 135.4 19.7 2996  42
2026 08 15 11  23 35 28.825   +19 53 58.97  .19706 1.1616 135.5 19.7 3570  41
2026 08 15 12  23 35 01.783   +19 59 07.43  .19619 1.1610 135.5 19.7 4329  39
2026 08 15 13  23 34 34.464   +20 04 18.29  .19532 1.1604 135.6 19.7 5392  38
2026 08 15 14  23 34 06.864   +20 09 31.56  .19445 1.1598 135.6 19.6 7024  37
2026 08 15 15  23 33 38.981   +20 14 47.28  .19359 1.1591 135.7 19.6 9935  37
2026 08 15 16  23 33 10.809   +20 20 05.46  .19272 1.1585 135.7 19.6 279'  41
2026 08 15 17  23 32 42.345   +20 25 26.12  .19186 1.1579 135.7 19.6 664'  67
2026 08 15 18  23 32 13.584   +20 30 49.30  .19099 1.1573 135.8 19.6 892'  87
2026 08 15 19  23 31 44.522   +20 36 15.01  .19013 1.1567 135.8 19.6 960'  94
2026 08 15 20  23 31 15.155   +20 41 43.28  .18927 1.1561 135.9 19.6  17d  96
2026 08 15 21  23 30 45.479   +20 47 14.13  .18841 1.1555 135.9 19.6  18d  95
2026 08 15 22  23 30 15.488   +20 52 47.60  .18756 1.1549 135.9 19.6  19d  92
2026 08 15 23  23 29 45.179   +20 58 23.69  .18670 1.1543 136.0 19.5  22d  92
2026 08 16 00  23 29 14.547   +21 04 02.44  .18585 1.1537 136.0 19.5  24d  94
2026 08 16 01  23 28 43.587   +21 09 43.88  .18499 1.1530 136.0 19.5  25d  96
2026 08 16 02  23 28 12.294   +21 15 28.02  .18414 1.1524 136.1 19.5  26d  98
2026 08 16 03  23 27 40.664   +21 21 14.89  .18329 1.1518 136.1 19.5  27d  99
2026 08 16 04  23 27 08.691   +21 27 04.53  .18244 1.1512 136.2 19.5  27d 100
2026 08 16 05  23 26 36.370   +21 32 56.94  .18159 1.1506 136.2 19.5  27d 100
2026 08 16 06  23 26 03.697   +21 38 52.17  .18074 1.1500 136.2 19.5  28d 100
2026 08 16 07  23 25 30.666   +21 44 50.23  .17990 1.1494 136.3 19.5  28d 100
2026 08 16 08  23 24 57.271   +21 50 51.15  .17906 1.1488 136.3 19.4  28d 100
2026 08 16 09  23 24 23.508   +21 56 54.95  .17821 1.1481 136.3 19.4  28d 100
2026 08 16 10  23 23 49.370   +22 03 01.66  .17737 1.1475 136.4 19.4  29d  99
2026 08 16 11  23 23 14.852   +22 09 11.32  .17654 1.1469 136.4 19.4  30d  99
2026 08 16 12  23 22 39.949   +22 15 23.93  .17570 1.1463 136.4 19.4  30d  99